| time (UTC) | temp F | wind direction | speed knots | gust knots | rain 1hr in | rain 24hr in | rain mn in | humidity % | barometer mb |
| 20260503193118 | 55 | 213 | 3.5 | 7.8 | 0.00 | 0.00 | 0.00 | 82 | 1016.4 |
| 20260503192542 | 56 | 205 | 3.5 | 7.8 | 0.00 | 0.00 | 0.00 | 81 | 1016.4 |
| 20260503192041 | 55 | 213 | 3.5 | 8.7 | 0.00 | 0.00 | 0.00 | 83 | 1016.3 |
| 20260503191556 | 54 | 218 | 4.3 | 8.7 | 0.00 | 0.00 | 0.00 | 84 | 1016.4 |
| 20260503191044 | 54 | 221 | 3.5 | 7.0 | 0.00 | 0.00 | 0.00 | 85 | 1016.5 |
| 20260503190541 | 54 | 275 | 2.6 | 7.8 | 0.00 | 0.00 | 0.00 | 87 | 1016.6 |
| 20260503190049 | 53 | 211 | 3.5 | 7.8 | 0.00 | 0.00 | 0.00 | 87 | 1016.6 |
| 20260503185543 | 53 | 213 | 2.6 | 7.8 | 0.00 | 0.00 | 0.00 | 87 | 1016.6 |
| 20260503185044 | 53 | 284 | 3.5 | 7.8 | 0.00 | 0.00 | 0.00 | 87 | 1016.6 |
| 20260503184603 | 53 | 196 | 3.5 | 7.0 | 0.00 | 0.00 | 0.00 | 88 | 1016.7 |
| 20260503184043 | 52 | 207 | 2.6 | 7.8 | 0.00 | 0.00 | 0.00 | 89 | 1016.5 |
| 20260503183541 | 52 | 212 | 3.5 | 13.0 | 0.00 | 0.00 | 0.00 | 88 | 1016.5 |
| 20260503183106 | 52 | 229 | 3.5 | 13.0 | 0.00 | 0.00 | 0.00 | 89 | 1016.6 |
| 20260503182540 | 52 | 247 | 4.3 | 13.0 | 0.00 | 0.00 | 0.00 | 87 | 1016.5 |
| 20260503182043 | 53 | 217 | 3.5 | 10.4 | 0.00 | 0.00 | 0.00 | 86 | 1016.5 |
| 20260503181603 | 54 | 230 | 3.5 | 10.4 | 0.00 | 0.00 | 0.00 | 87 | 1016.4 |
| 20260503181043 | 54 | 275 | 4.3 | 10.4 | 0.00 | 0.00 | 0.00 | 86 | 1016.5 |
| 20260503180542 | 53 | 168 | 4.3 | 10.4 | 0.00 | 0.00 | 0.00 | 87 | 1016.4 |
| 20260503180056 | 52 | 123 | 3.5 | 11.3 | 0.00 | 0.00 | 0.00 | 89 | 1016.4 |
| 20260503175545 | 52 | 214 | 4.3 | 11.3 | 0.00 | 0.00 | 0.00 | 91 | 1016.5 |
| 20260503175043 | 51 | 225 | 5.2 | 10.4 | 0.00 | 0.00 | 0.00 | 93 | 1016.4 |
| 20260503174553 | 51 | 263 | 4.3 | 10.4 | 0.00 | 0.00 | 0.00 | 93 | 1016.4 |
| 20260503174042 | 51 | 226 | 3.5 | 10.4 | 0.00 | 0.00 | 0.00 | 93 | 1016.3 |
| 20260503173542 | 51 | 268 | 6.1 | 10.4 | 0.00 | 0.00 | 0.00 | 93 | 1016.1 |
| 20260503173058 | 51 | 227 | 3.5 | 10.4 | 0.00 | 0.00 | 0.00 | 93 | 1016.3 |
| 20260503172544 | 50 | 219 | 3.5 | 10.4 | 0.00 | 0.00 | 0.00 | 92 | 1016.5 |
| 20260503172042 | 51 | 239 | 3.5 | 10.4 | 0.00 | 0.00 | 0.00 | 92 | 1016.2 |
| 20260503171552 | 51 | 221 | 4.3 | 8.7 | 0.00 | 0.00 | 0.00 | 91 | 1016.4 |
| 20260503171042 | 51 | 225 | 3.5 | 9.6 | 0.00 | 0.00 | 0.00 | 91 | 1016.4 |
| 20260503170541 | 51 | 196 | 4.3 | 10.4 | 0.00 | 0.00 | 0.00 | 91 | 1016.4 |
| 20260503150542 | 50 | 232 | 3.5 | 7.8 | 0.00 | 0.00 | 0.00 | 91 | 1015.6 |
| 20260503131044 | 48 | 238 | 3.5 | 7.0 | 0.00 | 0.00 | 0.00 | 93 | 1014.4 |
| 20260503130543 | 48 | 286 | 2.6 | 7.8 | 0.00 | 0.00 | 0.00 | 94 | 1014.3 |
| 20260503110543 | 48 | 243 | 3.5 | 10.4 | 0.00 | 0.00 | 0.00 | 93 | 1014.4 |
| 20260503081617 | 48 | 228 | 2.6 | 7.8 | 0.00 | 0.00 | 0.00 | 94 | 1015.0 |
| 20260503081041 | 48 | 221 | 3.5 | 7.8 | 0.00 | 0.00 | 0.00 | 94 | 1015.0 |
| 20260503080542 | 49 | 265 | 2.6 | 7.0 | 0.00 | 0.00 | 0.00 | 94 | 1015.0 |
| 20260503080108 | 49 | 216 | 1.7 | 8.7 | 0.00 | 0.00 | 0.00 | 94 | 1015.1 |
| 20260503072539 | 49 | 208 | 2.6 | 7.8 | 0.00 | 0.00 | 0.00 | 93 | 1015.0 |
| 20260503072042 | 49 | 160 | 4.3 | 7.8 | 0.00 | 0.00 | 0.00 | 93 | 1015.1 |
| 20260503071551 | 49 | 241 | 3.5 | 7.0 | 0.00 | 0.00 | 0.00 | 93 | 1015.0 |
| 20260503071042 | 49 | 201 | 3.5 | 7.8 | 0.00 | 0.00 | 0.00 | 93 | 1015.1 |
| 20260503070538 | 49 | 225 | 2.6 | 7.8 | 0.00 | 0.00 | 0.00 | 93 | 1015.1 |
| 20260503055041 | 49 | 215 | 2.6 | 8.7 | 0.00 | 0.00 | 0.00 | 93 | 1015.5 |
| 20260503054554 | 49 | 229 | 3.5 | 8.7 | 0.00 | 0.00 | 0.00 | 93 | 1015.5 |
| 20260503054039 | 49 | 275 | 2.6 | 8.7 | 0.00 | 0.00 | 0.00 | 93 | 1015.6 |
| 20260503053542 | 49 | 229 | 4.3 | 9.6 | 0.00 | 0.00 | 0.00 | 93 | 1015.6 |
| 20260503053047 | 49 | 257 | 3.5 | 9.6 | 0.00 | 0.00 | 0.00 | 93 | 1015.5 |
| 20260503052540 | 49 | 265 | 3.5 | 11.3 | 0.00 | 0.00 | 0.00 | 93 | 1015.5 |
| 20260503052043 | 49 | 213 | 2.6 | 11.3 | 0.00 | 0.00 | 0.00 | 93 | 1015.7 |
| 20260503051549 | 49 | 242 | 2.6 | 8.7 | 0.00 | 0.00 | 0.00 | 93 | 1015.5 |
| 20260503051039 | 49 | 277 | 4.3 | 8.7 | 0.00 | 0.00 | 0.00 | 93 | 1015.5 |
| 20260503050542 | 49 | 178 | 3.5 | 8.7 | 0.00 | 0.00 | 0.00 | 93 | 1015.5 |
| 20260503050054 | 49 | 221 | 2.6 | 7.0 | 0.00 | 0.00 | 0.00 | 93 | 1015.5 |
| 20260503045539 | 49 | 192 | 3.5 | 9.6 | 0.00 | 0.00 | 0.00 | 93 | 1015.5 |
| 20260503045043 | 49 | 187 | 4.3 | 9.6 | 0.00 | 0.00 | 0.00 | 93 | 1015.6 |
| 20260503044554 | 49 | 187 | 2.6 | 8.7 | 0.00 | 0.00 | 0.00 | 94 | 1015.5 |
| 20260503044042 | 49 | 202 | 3.5 | 8.7 | 0.00 | 0.00 | 0.00 | 94 | 1015.5 |
| 20260503043542 | 49 | 247 | 4.3 | 7.8 | 0.00 | 0.00 | 0.00 | 94 | 1015.4 |
| 20260503043050 | 49 | 218 | 3.5 | 7.8 | 0.00 | 0.00 | 0.00 | 94 | 1015.4 |
| 20260503042542 | 49 | 239 | 2.6 | 7.8 | 0.00 | 0.00 | 0.00 | 94 | 1015.3 |
| 20260503042039 | 49 | 211 | 2.6 | 7.8 | 0.00 | 0.00 | 0.00 | 94 | 1015.2 |
| 20260503041553 | 49 | 223 | 3.5 | 7.8 | 0.00 | 0.00 | 0.00 | 94 | 1015.2 |
| 20260503041040 | 49 | 232 | 3.5 | 7.8 | 0.00 | 0.00 | 0.00 | 94 | 1015.3 |
| 20260503040542 | 49 | 196 | 2.6 | 8.7 | 0.00 | 0.00 | 0.00 | 94 | 1015.3 |
| 20260503040050 | 49 | 178 | 3.5 | 8.7 | 0.00 | 0.00 | 0.00 | 94 | 1015.3 |
| 20260503035542 | 49 | 182 | 4.3 | 8.7 | 0.00 | 0.00 | 0.00 | 94 | 1015.4 |
| 20260503035042 | 49 | 207 | 3.5 | 7.0 | 0.00 | 0.00 | 0.00 | 94 | 1015.2 |
| 20260503034554 | 49 | 284 | 3.5 | 7.0 | 0.00 | 0.00 | 0.00 | 94 | 1015.3 |
| 20260503034040 | 49 | 203 | 3.5 | 7.8 | 0.00 | 0.00 | 0.00 | 94 | 1015.2 |
| 20260503033545 | 49 | 221 | 1.7 | 8.7 | 0.00 | 0.00 | 0.00 | 94 | 1015.1 |
| 20260503033100 | 49 | 215 | 4.3 | 8.7 | 0.00 | 0.00 | 0.00 | 94 | 1015.2 |
| 20260503032542 | 49 | 288 | 3.5 | 8.7 | 0.00 | 0.00 | 0.00 | 93 | 1015.1 |
| 20260503032041 | 49 | 243 | 3.5 | 8.7 | 0.00 | 0.00 | 0.00 | 93 | 1015.0 |
| 20260503031556 | 49 | 188 | 3.5 | 8.7 | 0.00 | 0.00 | 0.00 | 94 | 1015.0 |
| 20260503031039 | 49 | 211 | 2.6 | 8.7 | 0.00 | 0.00 | 0.00 | 93 | 1014.8 |
| 20260503030539 | 49 | 196 | 3.5 | 9.6 | 0.00 | 0.00 | 0.00 | 93 | 1014.8 |
| 20260503030054 | 49 | 200 | 3.5 | 9.6 | 0.00 | 0.00 | 0.00 | 93 | 1014.8 |
| 20260503025542 | 49 | 203 | 4.3 | 10.4 | 0.00 | 0.00 | 0.00 | 93 | 1014.6 |
| 20260503025040 | 49 | 212 | 4.3 | 10.4 | 0.00 | 0.00 | 0.00 | 92 | 1014.7 |
| 20260503024610 | 50 | 265 | 3.5 | 7.8 | 0.00 | 0.00 | 0.00 | 92 | 1014.7 |
| 20260503024039 | 50 | 193 | 3.5 | 7.8 | 0.00 | 0.00 | 0.00 | 92 | 1014.7 |
| 20260503023543 | 50 | 209 | 3.5 | 9.6 | 0.00 | 0.00 | 0.00 | 92 | 1014.8 |
| 20260503023047 | 50 | 233 | 3.5 | 10.4 | 0.00 | 0.00 | 0.00 | 92 | 1014.5 |
| 20260503022539 | 50 | 212 | 4.3 | 10.4 | 0.00 | 0.00 | 0.00 | 92 | 1014.6 |
| 20260503022042 | 50 | 233 | 3.5 | 10.4 | 0.00 | 0.00 | 0.00 | 92 | 1014.6 |
| 20260503021548 | 50 | 243 | 4.3 | 10.4 | 0.00 | 0.00 | 0.00 | 91 | 1014.6 |
| 20260503021042 | 50 | 196 | 4.3 | 10.4 | 0.00 | 0.00 | 0.00 | 91 | 1014.7 |
| 20260503020539 | 50 | 237 | 3.5 | 10.4 | 0.00 | 0.00 | 0.00 | 91 | 1014.8 |
| 20260503020050 | 50 | 237 | 4.3 | 10.4 | 0.00 | 0.00 | 0.00 | 90 | 1014.7 |
| 20260503015546 | 50 | 216 | 4.3 | 9.6 | 0.00 | 0.00 | 0.00 | 90 | 1014.6 |
| 20260503015041 | 50 | 211 | 5.2 | 9.6 | 0.00 | 0.00 | 0.00 | 90 | 1014.7 |
| 20260503014550 | 50 | 203 | 3.5 | 8.7 | 0.00 | 0.00 | 0.00 | 89 | 1014.8 |
| 20260503014042 | 50 | 221 | 4.3 | 9.6 | 0.00 | 0.00 | 0.00 | 89 | 1014.8 |
| 20260503013544 | 50 | 171 | 5.2 | 12.2 | 0.00 | 0.00 | 0.00 | 89 | 1014.9 |
| 20260503013049 | 50 | 213 | 5.2 | 12.2 | 0.00 | 0.00 | 0.00 | 88 | 1014.9 |
| 20260503012544 | 50 | 9 | 5.2 | 13.0 | 0.00 | 0.00 | 0.00 | 88 | 1015.0 |
| 20260503012039 | 51 | 247 | 6.1 | 13.0 | 0.00 | 0.00 | 0.00 | 87 | 1015.0 |
| 20260503011553 | 51 | 226 | 4.3 | 13.9 | 0.00 | 0.00 | 0.00 | 87 | 1015.0 |
| 20260503011040 | 51 | 205 | 4.3 | 13.9 | 0.00 | 0.00 | 0.00 | 86 | 1015.0 |
| 20260503010539 | 51 | 246 | 6.1 | 13.9 | 0.00 | 0.00 | 0.00 | 86 | 1015.0 |
| 20260503010047 | 52 | 212 | 5.2 | 14.8 | 0.00 | 0.00 | 0.00 | 85 | 1015.1 |
| 20260503005539 | 52 | 229 | 5.2 | 14.8 | 0.00 | 0.00 | 0.00 | 86 | 1015.0 |
| 20260503005039 | 52 | 225 | 5.2 | 14.8 | 0.00 | 0.00 | 0.00 | 86 | 1015.0 |
| 20260503004548 | 52 | 226 | 7.0 | 13.0 | 0.00 | 0.00 | 0.00 | 85 | 1015.0 |
| 20260503004042 | 53 | 218 | 3.5 | 8.7 | 0.00 | 0.00 | 0.00 | 85 | 1015.1 |
| 20260503003544 | 53 | 303 | 4.3 | 9.6 | 0.00 | 0.00 | 0.00 | 85 | 1015.2 |
| 20260503003051 | 53 | 241 | 4.3 | 11.3 | 0.00 | 0.00 | 0.00 | 86 | 1015.3 |
| 20260503002545 | 53 | 194 | 5.2 | 11.3 | 0.00 | 0.00 | 0.00 | 86 | 1015.2 |
| 20260503002042 | 53 | 205 | 4.3 | 11.3 | 0.00 | 0.00 | 0.00 | 84 | 1015.2 |
| 20260503001559 | 53 | 223 | 4.3 | 11.3 | 0.00 | 0.00 | 0.00 | 85 | 1015.3 |
| 20260503001041 | 53 | 221 | 4.3 | 10.4 | 0.00 | 0.00 | 0.00 | 85 | 1015.1 |
| 20260503000542 | 53 | 227 | 4.3 | 9.6 | 0.00 | 0.00 | 0.00 | 85 | 1015.2 |
| 20260503000106 | 54 | 202 | 3.5 | 8.7 | 0.00 | 0.00 | 0.00 | 84 | 1015.3 |
| 20260502235544 | 54 | 244 | 3.5 | 8.7 | 0.00 | 0.00 | 0.00 | 85 | 1015.3 |
| 20260502235043 | 54 | 225 | 4.3 | 13.9 | 0.00 | 0.00 | 0.00 | 84 | 1015.3 |
| 20260502234606 | 54 | 221 | 4.3 | 13.9 | 0.00 | 0.00 | 0.00 | 84 | 1015.3 |
| 20260502234043 | 54 | 265 | 3.5 | 12.2 | 0.00 | 0.00 | 0.00 | 84 | 1015.4 |
| 20260502233545 | 54 | 207 | 6.1 | 11.3 | 0.00 | 0.00 | 0.00 | 82 | 1015.4 |
| 20260502233106 | 54 | 196 | 3.5 | 10.4 | 0.00 | 0.00 | 0.00 | 84 | 1015.5 |
| 20260502232542 | 54 | 250 | 4.3 | 13.0 | 0.00 | 0.00 | 0.00 | 82 | 1015.5 |
| 20260502232041 | 55 | 238 | 5.2 | 13.0 | 0.00 | 0.00 | 0.00 | 83 | 1015.6 |
| 20260502231603 | 55 | 250 | 4.3 | 10.4 | 0.00 | 0.00 | 0.00 | 81 | 1015.6 |
| 20260502231046 | 55 | 273 | 3.5 | 7.8 | 0.00 | 0.00 | 0.00 | 81 | 1015.6 |
| 20260502230543 | 56 | 227 | 4.3 | 13.0 | 0.00 | 0.00 | 0.00 | 82 | 1015.7 |
| 20260502230054 | 55 | 272 | 5.2 | 13.0 | 0.00 | 0.00 | 0.00 | 81 | 1015.8 |
| 20260502225546 | 56 | 202 | 5.2 | 11.3 | 0.00 | 0.00 | 0.00 | 79 | 1015.8 |
| 20260502225042 | 56 | 225 | 4.3 | 13.9 | 0.00 | 0.00 | 0.00 | 81 | 1015.9 |
| 20260502224552 | 55 | 208 | 7.8 | 13.9 | 0.00 | 0.00 | 0.00 | 81 | 1015.9 |
| 20260502224044 | 56 | 193 | 4.3 | 12.2 | 0.00 | 0.00 | 0.00 | 82 | 1015.9 |
| 20260502223543 | 56 | 238 | 5.2 | 13.0 | 0.00 | 0.00 | 0.00 | 80 | 1016.0 |
| 20260502223052 | 55 | 221 | 6.1 | 13.0 | 0.00 | 0.00 | 0.00 | 82 | 1016.1 |
| 20260502222543 | 55 | 265 | 4.3 | 13.9 | 0.00 | 0.00 | 0.00 | 82 | 1016.2 |
| 20260502222042 | 55 | 221 | 6.1 | 13.9 | 0.00 | 0.00 | 0.00 | 82 | 1016.3 |
| 20260502221600 | 55 | 235 | 6.1 | 12.2 | 0.00 | 0.00 | 0.00 | 83 | 1016.3 |
| 20260502221043 | 55 | 186 | 6.1 | 12.2 | 0.00 | 0.00 | 0.00 | 81 | 1016.4 |
| 20260502220543 | 55 | 205 | 5.2 | 11.3 | 0.00 | 0.00 | 0.00 | 82 | 1016.4 |
| 20260502220053 | 54 | 228 | 4.3 | 10.4 | 0.00 | 0.00 | 0.00 | 82 | 1016.4 |
| 20260502215542 | 54 | 261 | 4.3 | 12.2 | 0.00 | 0.00 | 0.00 | 83 | 1016.4 |
| 20260502215044 | 54 | 223 | 4.3 | 12.2 | 0.00 | 0.00 | 0.00 | 83 | 1016.5 |
| 20260502214604 | 54 | 190 | 4.3 | 9.6 | 0.00 | 0.00 | 0.00 | 83 | 1016.5 |
| 20260502214044 | 54 | 186 | 4.3 | 12.2 | 0.00 | 0.00 | 0.00 | 84 | 1016.6 |
| 20260502213542 | 53 | 210 | 7.0 | 12.2 | 0.00 | 0.00 | 0.00 | 84 | 1016.7 |
| 20260502213053 | 54 | 232 | 5.2 | 11.3 | 0.00 | 0.00 | 0.00 | 83 | 1016.7 |
| 20260502212540 | 54 | 203 | 4.3 | 11.3 | 0.00 | 0.00 | 0.00 | 85 | 1016.6 |
| 20260502212042 | 53 | 221 | 5.2 | 10.4 | 0.00 | 0.00 | 0.00 | 85 | 1016.6 |
| 20260502211550 | 53 | 229 | 6.1 | 12.2 | 0.00 | 0.00 | 0.00 | 85 | 1016.8 |
| 20260502211042 | 53 | 205 | 4.3 | 13.0 | 0.00 | 0.00 | 0.00 | 86 | 1016.8 |
| 20260502210540 | 53 | 217 | 5.2 | 13.0 | 0.00 | 0.00 | 0.00 | 85 | 1016.8 |
| 20260502210047 | 53 | 218 | 4.3 | 12.2 | 0.00 | 0.00 | 0.00 | 86 | 1016.9 |
| 20260502205539 | 52 | 221 | 5.2 | 12.2 | 0.00 | 0.00 | 0.00 | 87 | 1017.0 |
| 20260502205039 | 52 | 238 | 6.1 | 12.2 | 0.00 | 0.00 | 0.00 | 87 | 1017.0 |
| 20260502204551 | 52 | 235 | 5.2 | 11.3 | 0.00 | 0.00 | 0.00 | 87 | 1017.1 |
| 20260502204041 | 52 | 213 | 4.3 | 10.4 | 0.00 | 0.00 | 0.00 | 88 | 1017.1 |
| 20260502203540 | 52 | 228 | 4.3 | 11.3 | 0.00 | 0.00 | 0.00 | 89 | 1017.2 |
| 20260502203055 | 52 | 219 | 5.2 | 12.2 | 0.00 | 0.00 | 0.00 | 90 | 1017.2 |
| 20260502202539 | 51 | 198 | 6.1 | 13.9 | 0.00 | 0.00 | 0.00 | 90 | 1017.2 |
| 20260502202039 | 51 | 225 | 5.2 | 13.9 | 0.00 | 0.00 | 0.00 | 90 | 1017.3 |
| 20260502201549 | 51 | 239 | 5.2 | 12.2 | 0.00 | 0.00 | 0.00 | 91 | 1017.4 |
| 20260502201039 | 51 | 171 | 4.3 | 11.3 | 0.00 | 0.00 | 0.00 | 91 | 1017.3 |
| 20260502200545 | 51 | 244 | 3.5 | 10.4 | 0.00 | 0.00 | 0.00 | 92 | 1017.4 |
| 20260502200048 | 51 | 219 | 3.5 | 9.6 | 0.00 | 0.00 | 0.00 | 92 | 1017.4 |
| 20260502195541 | 51 | 219 | 5.2 | 11.3 | 0.00 | 0.00 | 0.00 | 92 | 1017.4 |
| 20260502195040 | 51 | 175 | 5.2 | 11.3 | 0.00 | 0.00 | 0.00 | 92 | 1017.3 |
| 20260502194549 | 51 | 195 | 4.3 | 12.2 | 0.00 | 0.00 | 0.00 | 93 | 1017.4 |
| 20260502194039 | 51 | 219 | 4.3 | 12.2 | 0.00 | 0.00 | 0.00 | 93 | 1017.4 |
| 20260502193539 | 51 | 239 | 4.3 | 12.2 | 0.00 | 0.00 | 0.00 | 94 | 1017.4 |